Regional Weather Roundup
Issued by NWS

Home | Current Version | Previous Version | Text Only | Print | Product List | Glossary On
Versions: 1 2 3 4 5 6 7 8 9 10 11 12 13 14 15 16 17 18 19 20 21 22 23 24 25 26 27 28 29 30 31 32 33 34 35 36 37 38 39 40 41 42 43 44 45 46 47 48 49 50
000
ASUS44 KFWD 291215
RWRTX
NORTH TEXAS HOURLY WEATHER ROUNDUP
NATIONAL WEATHER SERVICE FORT WORTH TX
700 AM CDT SAT AUG 29 2015

NOTE: "FAIR" INDICATES FEW OR NO CLOUDS BELOW 12,000 FEET WITH NO
SIGNIFICANT WEATHER AND/OR OBSTRUCTIONS TO VISIBILITY.

TXZ118-119-291300-
DALLAS/FORT WORTH METROPLEX

CITY           SKY/WX    TMP DP  RH WIND       PRES   REMARKS
DFW AIRPORT    CLOUDY    79  64  60 S8        29.98R
6HR MIN TEMP:  79; 6HR MAX TEMP:  83; 6HR PCP: TRACE;

DALLAS LOVE    CLOUDY    81  65  58 S7        29.98R
6HR MIN TEMP:  79; 6HR MAX TEMP:  84; 6HR PCP: TRACE;

FTW MEACHAM    CLOUDY    80  64  58 SE5       29.98R
6HR MIN TEMP:  79; 6HR MAX TEMP:  84; 6HR PCP: TRACE;

DAL-EXECUTIVE  CLOUDY    78  64  61 VRB3      29.99S
6HR MIN TEMP:  76; 6HR MAX TEMP:  81;

FTW-ALLIANCE   CLOUDY    77  66  68 SE6       29.98R
6HR MIN TEMP:  77; 6HR MAX TEMP:  83; 6HR PCP: TRACE;

FTW-NAS-JRB    CLOUDY    80  64  58 S5        29.98S
6HR MIN TEMP:  80; 6HR MAX TEMP:  84;

FTW-SPINKS     MOCLDY    75  66  73 S8        30.00R
ARLINGTON      CLOUDY    78  63  59 S7        29.99R
6HR MIN TEMP:  78; 6HR MAX TEMP:  84;

GRAND PRAIRIE  CLEAR     79  66  65 S3        30.00R
ADDISON        MOCLDY    79  64  61 S7        29.99R
MESQUITE       CLEAR     73  68  83 SE7       29.99S
LANCASTER      CLOUDY    75  63  66 S6        30.00S
6HR MIN TEMP:  75; 6HR MAX TEMP:  80;

$$

TXZ091>094-102>105-117-120-121-131>134-291300-
NORTH CENTRAL TEXAS

CITY           SKY/WX    TMP DP  RH WIND       PRES   REMARKS
SHRMAN/DENISON MOCLDY    78  67  69 SE6       30.00R
6HR MIN TEMP:  77; 6HR MAX TEMP:  82;

GAINESVILLE    PTCLDY    75  63  66 SE6       30.00R
6HR MIN TEMP:  74; 6HR MAX TEMP:  81;

BOWIE          MOCLDY    73  63  71 CALM      29.98S
6HR MIN TEMP:  73; 6HR MAX TEMP:  80;

BRIDGEPORT     CLOUDY    81  63  54 SW6       29.99S
6HR MIN TEMP:  77; 6HR MAX TEMP:  82;

DECATUR        CLOUDY    78  61  55 SE6       29.99S
6HR MIN TEMP:  78; 6HR MAX TEMP:  82;

DENTON         MOCLDY    77  65  66 S6        29.98R
6HR MIN TEMP:  77; 6HR MAX TEMP:  83;

MCKINNEY       CLOUDY    74  68  81 SE6       29.99R
6HR MIN TEMP:  73; 6HR MAX TEMP:  81; 6HR PCP:  0.03;

GREENVILLE     CLOUDY    73  64  73 S3        30.00S
ROCKWALL       CLOUDY    75  66  73 S3        29.98S
6HR MIN TEMP:  75; 6HR MAX TEMP:  79;

TERRELL        CLOUDY    75  67  76 S8        30.00S
6HR MIN TEMP:  74; 6HR MAX TEMP:  77; 6HR PCP: TRACE;

WAXAHACHIE     CLOUDY    75  66  73 SE5       30.02R
6HR MIN TEMP:  75; 6HR MAX TEMP:  79;

CLEBURNE         N/A     75  68  78 SE6       30.02R
GRANBURY       CLOUDY    79  64  60 CALM      30.01R
6HR MIN TEMP:  79; 6HR MAX TEMP:  82;

$$

TXZ083>090-098>101-113>116-127>130-139>142-154-155-291300-
WESTERN NORTH TEXAS

CITY           SKY/WX    TMP DP  RH WIND       PRES   REMARKS
WICHITA FALLS  PTCLDY    73  63  70 S6        29.96R
6HR MIN TEMP:  71; 6HR MAX TEMP:  84;

WF-KICKAPOO    MOCLDY    76  64  64 SW6       29.97R
6HR MIN TEMP:  76; 6HR MAX TEMP:  85;

VERNON         MOCLDY    73  59  62 E6        29.96S
6HR MIN TEMP:  73; 6HR MAX TEMP: 101;

ABILENE        CLOUDY    78  55  44 SW12      30.03S
6HR MIN TEMP:  77; 6HR MAX TEMP:  80;

ABILENE-DYESS  CLOUDY    79  55  42 S12G18    30.01S
6HR MIN TEMP:  77; 6HR MAX TEMP:  81;

BRECKENRIDGE   CLOUDY    80  57  45 S10       29.98S HAZE
6HR MIN TEMP:  80; 6HR MAX TEMP:  83;

GRAHAM         LGT RAIN  78  61  57 S9        29.96S
6HR MIN TEMP:  76; 6HR MAX TEMP:  83;

MINERAL WELLS  CLOUDY    74  65  73 S7        29.98S
6HR MIN TEMP:  74; 6HR MAX TEMP:  79;

STEPHENVILLE   CLOUDY    74  62  66 CALM      30.05R
6HR MIN TEMP:  73; 6HR MAX TEMP:  78;

COMANCHE       CLOUDY    77  62  59 SW10      30.04S
6HR MIN TEMP:  74; 6HR MAX TEMP:  78;

BROWNWOOD      CLOUDY    73  63  68 S5        30.05S
COLEMAN        CLOUDY    75  62  62 S8        30.06R
6HR MIN TEMP:  75; 6HR MAX TEMP:  80;

BRADY          CLEAR     73  61  64 S5        30.06R
$$

TXZ143>147-156>162-174-175-291300-
CENTRAL TEXAS

CITY           SKY/WX    TMP DP  RH WIND       PRES   REMARKS
WACO           CLOUDY    77  65  66 S10       30.02R
6HR MIN TEMP:  76; 6HR MAX TEMP:  80;

WACO-TSTC      CLEAR     73  66  78 S7        30.02
WACO-MCGREGOR  MOCLDY    74  66  76 S6        30.03R
6HR MIN TEMP:  74; 6HR MAX TEMP:  78;

HILLSBORO      CLOUDY    75  63  65 S8        30.01S
6HR MIN TEMP:  75; 6HR MAX TEMP:  79;

CORSICANA      CLOUDY    76  66  71 S6        30.03R
6HR MIN TEMP:  75; 6HR MAX TEMP:  78;

MEXIA          CLOUDY    74  66  75 S3        30.02R
6HR MIN TEMP:  74; 6HR MAX TEMP:  77;

HEARNE         PTCLDY    71  67  89 SE5       30.03R
6HR MIN TEMP:  69; 6HR MAX TEMP:  76;

CAMERON        PTCLDY    73  66  78 CALM      30.03R
6HR MIN TEMP:  73; 6HR MAX TEMP:  79;

TEMPLE         PTCLDY    70  61  73 S5        30.03R
6HR MIN TEMP:  70; 6HR MAX TEMP:  75;

KILLEEN        PTCLDY    73  63  70 SW3       30.03R
6HR MIN TEMP:  73; 6HR MAX TEMP:  77;

KILLEEN-SKYLRK PTCLDY    72  61  68 SW3       30.02R
6HR MIN TEMP:  72; 6HR MAX TEMP:  79;

FORT HOOD      PTCLDY    73  63  70 S6        30.03R
6HR MIN TEMP:  73; 6HR MAX TEMP:  79;

GATESVILLE     CLOUDY    75  64  69 CALM      30.05R
HAMILTON       CLOUDY    76  63  63 SW9       30.04R
6HR MIN TEMP:  74; 6HR MAX TEMP:  78;

$$

TXZ095>097-106>112-122>126-135>138-148>153-164>167-291300-
EAST TEXAS

CITY           SKY/WX    TMP DP  RH WIND       PRES   REMARKS
PARIS          CLOUDY    72  57  60 SE8       30.01R
6HR MIN TEMP:  72; 6HR MAX TEMP:  75;

SULPHUR SPRNGS CLOUDY    76  65  69 S8        30.02S
6HR MIN TEMP:  71; 6HR MAX TEMP:  77;

MOUNT PLEASANT MOCLDY    69  63  80 CALM      30.03S
6HR MIN TEMP:  69; 6HR MAX TEMP:  72;

GILMER         MOCLDY    70  65  82 CALM      30.03R
6HR MIN TEMP:  69; 6HR MAX TEMP:  73;

MINEOLA        CLOUDY    73  68  83 S3        30.02R
TYLER          MOCLDY    75  68  78 SW6       30.03R
6HR MIN TEMP:  75; 6HR MAX TEMP:  77;

LONGVIEW       MOCLDY    72  67  84 S5        30.03R
6HR MIN TEMP:  71; 6HR MAX TEMP:  74;

MARSHALL       MOCLDY    68  66  91 CALM      30.05S
6HR MIN TEMP:  68; 6HR MAX TEMP:  73;

ATHENS         CLOUDY    72  66  83 CALM      30.02R
PALESTINE      CLOUDY    73  69  87 SE3       30.04R
JACKSONVILLE   MOCLDY    72  67  83 S3        30.06R
HENDERSON      MOCLDY    69  66  91 CALM      30.05R
6HR MIN TEMP:  68; 6HR MAX TEMP:  72;

CENTER         FAIR      71  67  88 CALM      30.03R
6HR MIN TEMP:  68; 6HR MAX TEMP:  73;

NACOGDOCHES    MOCLDY    64  64 100 CALM      30.03R
6HR MIN TEMP:  64; 6HR MAX TEMP:  70;

LUFKIN         CLOUDY    68  66  93 CALM      30.03R
6HR MIN TEMP:  67; 6HR MAX TEMP:  71;

$$

SUPPLEMENTAL OBSERVATIONS (CENTRAL)

CITY           SKY/WX    TMP DP  RH WIND       PRES   REMARKS
LAKE TEXOMA      N/A     75  64  69 E2          N/A
PAT MAYSE LAKE   N/A     72  61  68 NE1         N/A
ATHENS           N/A     75  66  73 S3          N/A
LAKE LIMESTONE   N/A     72  64  78 S1          N/A
MCGREGOR         N/A     73  64  73 S5          N/A
TEMPLE           N/A     72  63  73 CALM        N/A
$$

SUPPLEMENTAL OBSERVATIONS (WEST)




USA.gov is the U.S. government's official web portal to all federal, state and local government web resources and services.